COSMOS 2251 DEB, 33940

Orbit data source: Space-Track

COSMOS 2251 DEB, 33940 is space debris in LEO originally from a launch on Wed, 16 Jun 1993 UTC launched from the Plesetsk Missile And Space Complex (PKMTR). The debris from Iridium 33, an American commercial communications satellite, has been tracked extensively since its accidental collision with the defunct Russian satellite Cosmos 2251 in 2009. This event, occurring at high speed in low Earth orbit (LEO), generated thousands of pieces of space debris, significantly increasing the risk of further collisions. The Iridium 33 debris cloud has impacted space traffic management and orbital debris mitigation strategies, making it a subject of ongoing study in space situational awareness.

Loading next visibility...
Identifier
33940, 1993-036EV
Orbit
LEO
Country
Flag of CISCIS
Related business
Manufacturer
Unknown
Mission
Spacecraft
Bus & Motor
Unknown
Mass
Unknown
Launch date (UTC)
1993-06-16 (33 years ago)
Launch vehicle
Unknown
Launch site
Plesetsk Missile And Space Complex (PKMTR)
Object type
Payload
Rocket body
Debris
Shape & HBR
Unknown shape, 0.2 m
Radar Cross Section
Small (<0.1 m²)

Expand to show TLE details & history
Last TLE update: 22 hours ago

TLE from 22 hours ago
0 COSMOS 2251 DEB
1 33940U 93036EV  26033.31705351  .00003938  00000-0  83705-3 0  9998
2 33940  74.0390  45.2429 0007943 114.4332 260.4095 14.59387550893464
Epoch: 2026-02-02T07:36Z
TLE epoch observation values (Epoch: 2026-02-02T07:36:33.423Z)
Latitude
14.14796°
Longitude
162.70162°
Altitude
697.999 km
Speed
7.508 km/s
True Right ascension
03h 17m 25s
True Declination
14° 03' 58"
Sunlit
Object was in daylight at epoch
Visualization orbit readout
Latitude
Unknown
Longitude
Unknown
Altitude
Unknown
Speed
Unknown
Apparent Right ascension
Unknown
Apparent Declination
Unknown
Sunlit
N/A
Visualization observer readout
Local Sidereal Time
07:20:41
Azimuth
Unknown
Elevation
Unknown
Doppler factor
Unknown
Orbital elements
Apogee altitude
698.367 km
Perigee altitude
687.134 km
Semi-major axis
7,070.887 km
Eccentricity
0.00079
Inclination
74.039°
RAAN
45.2429°
Arg. of periapsis
114.4332°
True anomaly
260.31977°
Mean anomaly
260.4095°
Eccentric anomaly
260.36463°
Mean motion
3.65033 °/min
Orbital period
98.62 mins
BSTAR
0.00083705
Loading maneuver chart data...
Computing Atmospheric mass density...

Documentation

Showing up to 5 results
|